Temperature
22 22 21 21 20 20 22 23 24 24 23 23 23 23 22 21 20 19 19 20 20 20 20 20 20 20 20 19 19 19 19 19 19 19 19 19 19 19 18 19 18 18 18 18 18 18 18 18 18
22 22 21 21 20 21 22 24 24 24 24 23 23 22 21 20 20 19 19 20 20 20 20 20 20 20 20 19 19 19 19 19 19 19 19 19 19 19 19 18 18 18 18 18 18 18 18 19 18
23 22 21 20 21 21 23 24 24 24 24 24 23 22 21 21 20 20 20 20 20 20 20 20 20 20 20 20 19 19 19 19 19 19 19 19 19 19 19 19 18 18 18 18 18 18 18 18 18
23 22 22 21 22 23 24 24 25 24 24 23 22 21 21 21 21 20 20 20 20 20 20 20 20 20 20 19 19 19 19 19 19 19 19 19 19 19 19 19 19 19 19 18 18 18 18 18 18
23 22 21 21 23 25 25 25 25 24 24 23 22 21 21 21 21 21 20 21 21 20 20 20 20 20 20 19 19 19 19 19 19 19 19 19 19 19 19 19 19 19 19 19 18 18 18 18 18
23 21 21 22 24 25 26 25 25 24 23 22 22 21 21 21 21 21 21 21 21 20 20 20 20 20 20 19 19 19 19 19 19 19 19 19 19 19 19 19 19 19 19 19 19 18 18 18 18
22 21 22 23 24 25 26 26 25 24 23 23 22 21 21 21 21 21 21 21 20 20 20 20 20 20 20 19 19 19 19 19 19 19 19 19 19 19 19 19 19 19 19 19 18 18 18 18 18
24 21 23 24 24 25 26 26 25 24 24 23 22 21 21 21 21 21 21 20 20 20 20 20 20 20 19 19 19 19 19 19 19 19 19 19 19 19 19 19 19 19 19 19 18 18 18 18 18
25 22 22 24 25 25 26 26 25 25 24 23 23 22 21 21 21 21 21 20 20 20 20 20 20 20 19 19 19 19 19 19 19 19 19 19 19 19 19 19 19 19 19 18 18 18 18 18 18
24 22 24 26 26 26 26 26 25 24 23 23 22 22 21 21 21 21 21 20 20 20 20 20 20 20 19 19 19 19 19 19 19 19 19 19 19 19 19 19 18 19 18 18 18 18 18 18 18
25 25 26 27 28 27 26 26 25 24 22 22 22 22 21 21 21 21 21 21 21 20 20 20 20 20 19 19 19 19 19 19 19 19 19 19 18 18 18 18 18 18 18 18 18 18 18 18 18
26 27 28 27 28 27 26 26 25 24 23 23 23 22 22 21 21 21 21 21 21 20 20 20 20 20 19 19 19 19 19 19 19 19 19 19 18 18 18 18 18 18 18 18 18 18 18 18 18
27 27 28 28 28 27 27 26 25 24 24 23 22 22 22 22 22 21 21 21 21 20 20 20 20 19 19 19 19 19 19 19 19 19 19 19 19 18 18 18 18 18 18 18 18 18 18 18 18
27 27 28 27 27 27 26 25 25 24 24 23 23 22 22 22 22 21 21 21 21 20 20 20 20 19 19 19 19 19 19 19 19 19 18 19 19 19 18 18 18 18 18 18 18 18 18 18 18
28 26 26 27 27 27 26 25 24 24 24 23 23 22 22 22 22 22 21 21 21 20 20 20 20 19 19 19 19 19 19 19 19 19 19 19 19 19 19 18 18 18 18 18 18 18 18 18 18
26 25 25 26 26 26 25 23 24 24 24 23 23 22 22 22 22 22 21 21 21 21 20 20 20 20 20 19 19 19 19 19 19 19 19 19 19 19 19 19 18 18 18 18 18 18 18 18 18
25 24 25 26 27 26 24 23 24 24 24 23 23 22 22 22 22 21 21 21 21 21 20 20 20 20 20 19 19 19 19 19 19 19 19 19 19 19 19 19 19 18 18 18 18 18 18 18 18
25 25 25 25 26 26 24 23 24 24 24 23 23 23 22 22 22 22 21 21 21 21 20 20 20 20 20 19 19 19 19 19 19 19 19 19 19 19 19 18 18 18 18 18 18 18 18 18 18
26 26 25 26 27 25 24 24 24 24 24 23 23 23 22 22 22 22 22 21 21 21 20 20 20 20 19 19 19 19 19 19 19 19 19 19 19 19 19 19 18 18 18 18 18 18 18 18 18
27 26 26 26 27 26 24 24 24 24 24 24 23 23 22 22 22 22 21 21 21 21 20 20 20 20 19 19 19 19 19 19 19 19 19 19 18 18 19 19 18 18 18 18 18 18 18 18 18
27 26 26 26 26 25 24 24 23 24 24 24 23 23 23 22 22 22 22 21 21 21 21 20 20 20 20 19 19 19 19 19 19 19 19 19 19 18 18 18 18 18 18 18 18 18 18 18 18
27 28 28 27 25 23 24 22 23 23 23 23 23 23 23 23 22 22 22 22 21 21 21 20 20 20 20 19 19 19 19 19 19 19 19 18 18 18 18 18 18 18 18 18 18 18 18 18 18
28 28 28 26 24 23 23 22 22 22 23 23 23 23 23 23 23 22 22 22 22 21 21 20 20 20 20 19 19 19 19 19 19 19 19 19 18 18 18 18 18 18 18 18 18 18 18 18 18
29 26 25 23 22 23 23 23 22 22 23 23 23 24 23 23 23 23 22 22 22 21 21 21 20 20 20 20 19 19 19 19 19 19 19 19 19 18 18 18 18 18 18 18 18 18 18 18 18
27 24 23 23 21 22 23 23 22 24 24 24 24 24 23 23 23 23 22 22 22 21 21 21 20 20 20 20 19 19 19 19 19 19 19 19 19 18 18 18 18 18 18 18 18 18 18 18 18
27 24 23 24 23 22 23 23 24 25 26 25 25 25 24 23 23 23 23 22 22 22 21 21 21 20 20 20 19 19 19 19 19 19 19 19 19 18 18 18 18 18 18 18 18 18 18 18 18
27 25 23 22 22 22 23 24 25 25 25 24 24 24 24 23 23 23 23 23 22 22 22 21 21 21 20 20 20 19 19 19 19 19 19 19 19 18 18 18 18 18 18 18 18 18 18 18 18
27 25 22 22 23 23 23 24 23 24 24 24 23 24 24 24 24 24 23 23 22 22 22 22 21 21 21 20 20 20 19 19 19 19 19 19 19 18 18 18 18 18 18 18 18 18 18 18 18
26 25 22 20 21 22 22 23 25 24 24 23 23 24 24 24 24 23 23 23 23 22 22 22 21 21 21 20 20 20 19 19 19 19 19 18 18 18 18 18 18 18 18 18 18 18 17 17 17
26 25 22 23 22 21 21 22 25 24 24 24 24 24 24 24 24 24 23 23 23 22 22 22 21 21 21 20 20 20 19 19 19 19 19 18 18 18 18 18 18 18 18 18 18 17 17 17 17
Wind_Speed
11 8 3 1 2 3 2 3 5 6 5 7 9 9 8 6 4 5 3 9 10 8 9 12 12 13 13 14 14 14 14 14 14 14 15 15 14 15 15 15 15 15 15 14 13 13 13 13 13
7 5 1 2 3 3 2 3 8 8 8 10 10 10 8 6 6 7 5 9 10 9 9 12 14 14 14 14 14 14 13 14 14 14 14 15 15 15 15 15 15 15 15 14 13 13 12 12 13
6 3 1 2 2 3 3 4 9 10 10 8 6 6 5 5 6 5 7 11 9 8 10 13 15 15 14 14 13 13 13 13 14 14 14 14 14 14 15 15 15 14 14 13 13 12 12 12 13
2 2 2 3 3 2 5 6 10 10 9 8 7 6 4 4 5 8 12 12 10 7 10 12 15 15 15 14 13 13 12 13 13 14 14 14 14 14 14 14 14 14 13 13 12 12 11 12 12
2 3 3 3 3 3 6 9 12 11 6 9 10 8 5 4 11 13 13 12 11 8 9 12 15 15 14 14 13 12 12 12 13 13 13 13 13 13 13 13 13 13 12 12 12 11 10 10 10
2 3 4 3 5 5 6 10 13 14 12 10 9 7 3 5 11 12 12 11 10 10 9 11 14 15 14 13 13 13 12 13 13 13 12 13 12 12 12 12 12 13 12 11 11 10 10 9 9
2 3 2 4 5 6 6 7 10 11 10 6 7 6 3 5 8 10 10 10 9 9 8 8 10 12 13 12 12 12 12 13 13 12 12 12 11 11 11 11 11 11 11 11 10 9 8 8 7
3 2 1 3 5 5 5 6 8 11 8 8 6 7 6 7 8 9 8 8 8 7 7 6 7 8 9 10 11 11 11 12 12 12 12 11 10 10 10 9 10 10 10 9 9 9 8 7 6
3 3 1 3 5 5 7 10 7 8 11 7 6 7 10 12 10 10 8 6 6 6 5 5 6 7 7 8 9 10 9 10 11 10 11 10 7 7 7 8 9 10 9 9 8 7 7 5 5
4 4 4 4 6 8 10 12 8 8 11 9 10 10 12 12 10 10 9 8 7 7 6 5 6 6 7 6 7 6 6 6 7 7 7 7 6 6 7 8 8 9 8 7 7 6 5 4 3
5 5 4 4 6 9 9 8 7 10 8 11 14 14 12 11 9 9 8 8 8 7 7 6 5 6 6 4 6 5 4 4 5 7 7 6 5 4 4 4 5 6 6 5 4 3 2 2 2
4 3 4 4 5 8 9 8 8 8 9 13 14 14 11 10 9 9 8 7 7 6 5 5 5 5 5 5 5 5 4 4 4 6 7 6 4 3 3 3 3 4 4 4 3 2 2 2 2
4 2 3 5 8 9 11 10 9 9 11 13 14 13 12 10 8 8 9 7 7 6 5 5 5 6 5 4 4 5 4 4 5 5 6 6 5 4 4 3 3 3 4 4 3 3 2 2 1
3 3 3 6 9 9 13 9 7 9 13 13 12 11 10 10 9 8 8 7 6 6 5 5 6 5 5 3 3 4 5 5 5 5 6 7 6 5 4 3 3 3 4 5 4 3 3 2 2
4 5 4 4 6 7 11 6 7 11 12 12 12 11 9 7 9 9 9 8 7 6 6 5 6 5 5 3 3 4 5 6 5 5 6 6 6 5 5 4 3 3 4 4 4 3 3 2 2
4 5 2 1 3 5 8 5 7 11 12 11 10 11 10 7 9 9 9 8 7 7 6 6 6 5 4 3 3 3 5 5 4 5 6 6 6 6 5 3 3 3 4 3 3 2 2 1 2
4 2 2 1 2 3 5 5 7 9 12 11 10 10 10 8 8 8 9 9 8 8 7 6 5 5 4 3 3 4 4 4 4 5 5 5 6 7 5 3 2 3 3 2 3 2 2 2 2
3 2 2 3 3 4 4 4 8 8 10 11 10 9 9 10 9 9 9 9 8 8 7 6 5 4 4 3 3 3 3 2 3 3 4 5 5 6 6 3 2 3 3 2 2 2 2 2 2
5 3 2 3 4 4 4 6 8 9 8 9 9 9 9 9 9 9 9 9 8 7 7 6 5 4 3 3 3 3 2 2 2 2 4 5 5 6 5 4 3 3 3 3 3 2 2 2 2
4 2 1 2 4 4 3 4 6 8 10 11 12 11 11 9 8 9 9 9 8 8 7 6 6 5 4 3 2 2 2 2 2 2 3 5 5 5 5 4 3 3 3 3 3 3 2 1 2
4 6 6 4 1 2 5 1 2 3 5 7 9 9 10 13 13 12 10 9 9 9 8 7 6 5 4 3 3 3 3 3 2 2 1 2 4 5 4 4 3 3 3 4 4 4 4 2 0
4 7 8 7 3 1 3 2 5 5 5 8 9 9 10 11 11 11 11 10 10 10 8 7 6 5 4 4 4 4 3 3 2 2 2 1 3 4 4 4 4 3 3 3 3 4 4 4 2
5 4 4 5 4 1 1 3 5 4 6 10 11 12 12 12 13 13 12 12 11 10 9 8 7 5 4 4 5 5 3 2 2 2 3 2 1 2 3 4 4 3 3 3 2 2 3 3 3
5 5 4 5 4 1 3 3 5 6 11 11 10 11 11 11 12 12 11 10 9 9 9 8 7 5 5 5 5 5 5 4 4 3 3 2 1 1 2 3 3 3 2 2 2 2 2 2 2
5 6 3 4 4 4 3 1 7 9 11 13 14 14 13 11 11 10 10 11 11 11 10 9 9 6 5 5 5 5 5 5 5 4 3 3 2 1 1 2 2 2 2 2 2 2 2 2 2
4 9 7 4 4 4 3 3 7 6 8 11 11 12 13 13 12 11 11 12 12 12 11 10 10 7 6 6 5 4 4 4 3 3 3 3 3 2 2 2 2 2 2 2 3 2 2 2 2
2 3 8 7 3 1 3 4 6 3 5 8 9 11 13 14 13 11 11 11 12 12 12 12 11 8 8 7 6 4 4 4 4 3 3 3 2 3 3 3 2 2 2 2 3 2 2 2 2
5 5 6 6 5 2 3 3 4 3 4 7 9 10 11 12 12 11 11 11 11 11 11 11 11 10 8 7 7 6 4 4 4 3 3 3 3 2 3 3 2 2 2 2 2 2 2 2 1
1 3 5 4 6 6 3 6 5 7 8 9 10 9 9 11 12 12 11 11 10 10 10 11 10 9 8 8 6 6 5 4 4 3 3 3 3 3 3 3 3 2 2 2 2 2 2 2 2
5 5 6 4 2 5 5 6 4 5 7 9 10 10 9 10 10 11 11 10 9 10 11 11 11 11 10 8 7 6 5 5 4 3 3 3 3 3 3 3 3 2 2 2 3 3 2 2 2
Wind_Direction
166 165 170 148 43 48 68 86 103 82 63 69 78 85 86 74 103 131 149 137 132 134 141 135 130 123 119 117 114 111 109 109 109 109 110 112 111 112 116 119 122 121 119 118 118 119 119 122 125
160 171 174 46 66 67 53 106 94 92 111 102 80 81 80 76 90 114 126 140 135 133 136 135 132 126 123 119 116 114 112 111 112 113 112 113 113 114 117 120 122 123 122 121 120 121 120 122 126
171 173 97 54 63 126 122 110 107 100 98 94 86 67 73 99 107 129 147 142 131 131 135 136 135 130 126 122 119 117 116 116 117 117 115 115 114 114 116 119 122 123 124 125 124 121 123 126 128
149 84 43 63 86 111 118 120 115 105 81 76 93 73 63 96 120 134 137 137 130 132 138 141 138 133 130 127 124 121 120 122 122 121 120 119 118 118 119 120 124 128 129 128 128 125 123 126 129
73 76 51 57 83 91 103 112 110 98 93 91 94 95 77 72 116 131 138 139 136 137 145 144 139 137 135 132 127 126 125 126 127 126 125 124 124 123 122 122 126 131 131 133 131 129 127 126 130
61 70 68 82 91 87 95 108 103 99 106 106 102 104 94 118 125 138 140 140 142 144 148 145 144 141 139 138 137 135 134 135 135 133 130 130 130 129 128 128 129 132 132 135 136 133 131 132 134
108 87 120 131 106 100 103 111 109 115 110 108 116 101 109 120 133 138 136 137 141 145 145 147 147 144 145 145 144 142 141 143 142 142 140 139 137 136 135 135 134 137 140 142 144 143 140 139 141
165 101 78 112 114 116 114 94 114 120 112 120 113 121 150 157 136 128 127 126 134 144 149 152 147 146 149 151 151 149 146 147 148 150 148 147 146 146 145 145 144 146 147 150 153 153 152 150 151
148 81 135 163 143 143 123 100 99 100 111 110 103 125 147 143 130 122 119 119 133 144 154 155 152 154 155 156 158 155 154 154 155 157 157 157 155 157 159 159 158 159 159 161 163 162 156 157 155
144 134 196 181 150 139 129 120 122 104 105 106 108 118 132 135 133 129 131 137 143 152 161 161 158 164 162 161 155 157 161 159 159 161 162 160 162 167 168 167 170 169 169 170 169 166 162 160 154
151 160 172 146 135 128 124 121 109 113 118 138 139 142 141 137 137 136 139 142 149 154 156 159 158 159 162 157 153 156 160 158 157 157 159 154 154 157 160 165 169 172 171 165 154 160 172 159 151
123 144 135 141 130 120 126 125 109 119 145 147 141 142 140 138 143 146 144 145 141 141 149 156 154 151 158 150 158 165 166 163 165 162 160 159 158 158 162 165 166 166 162 159 155 160 166 166 164
100 119 127 128 112 110 109 116 117 125 136 138 135 135 138 142 143 146 146 142 130 130 137 143 140 146 147 146 161 157 163 163 165 158 162 163 159 158 165 166 164 169 168 169 168 160 161 167 166
144 113 94 107 103 109 111 117 114 139 140 137 137 137 142 148 145 137 135 133 133 134 134 138 136 138 134 137 141 150 161 157 157 162 161 156 160 162 156 153 158 166 174 175 166 161 158 155 149
97 85 55 97 101 121 107 95 137 146 140 139 141 140 142 148 141 138 144 144 143 139 134 134 131 123 120 124 140 152 160 156 158 165 163 158 158 162 156 152 155 168 165 164 153 145 140 139 148
60 63 55 296 114 133 105 140 169 150 141 140 145 148 149 150 146 144 143 139 138 133 130 137 128 119 120 123 117 124 141 149 157 164 165 166 165 157 150 145 162 166 156 150 140 142 126 133 142
44 98 175 245 200 142 111 157 181 159 148 149 153 154 153 150 150 149 146 143 141 137 131 126 119 124 130 126 111 112 123 133 151 157 163 168 167 159 150 146 152 149 134 127 145 139 145 146 142
225 177 205 198 217 126 124 169 172 170 160 161 160 159 159 159 164 159 150 145 140 138 132 126 123 124 118 107 95 94 97 115 133 145 157 156 156 153 148 145 147 133 115 116 131 139 145 151 150
189 169 193 194 181 136 157 162 178 176 168 168 168 166 168 169 167 159 152 147 140 136 131 130 128 123 113 106 108 111 124 134 135 150 157 154 149 147 144 139 136 137 142 156 153 141 135 121 119
186 163 177 156 161 135 156 172 191 179 184 177 174 174 173 164 159 161 156 151 147 148 145 140 139 138 133 138 139 136 137 142 147 139 143 153 150 150 147 143 146 143 141 141 144 139 129 127 125
211 187 189 176 122 96 113 29 235 204 174 176 179 176 175 170 168 167 161 160 155 155 156 153 151 146 146 136 109 91 80 70 80 98 127 162 160 154 151 147 142 140 144 156 162 152 144 156 218
231 216 186 161 127 246 139 176 250 207 191 191 185 182 179 175 170 170 167 166 166 168 162 153 154 150 147 137 127 124 128 139 168 164 157 139 145 148 150 149 147 145 145 152 170 164 152 148 166
199 197 158 154 145 105 54 129 262 181 200 206 195 190 185 179 175 176 174 173 171 167 161 157 153 153 150 146 144 138 133 141 127 116 118 113 112 135 143 148 149 147 144 152 166 153 148 154 161
145 82 51 58 70 34 238 157 251 207 206 204 197 188 183 180 180 180 175 169 168 165 161 157 155 159 158 149 142 144 143 136 121 118 124 122 112 96 115 135 145 148 145 154 167 164 153 160 155
103 98 46 13 14 262 268 179 244 229 199 189 187 184 179 174 177 177 175 172 170 168 167 164 162 165 168 156 150 150 148 144 143 145 149 142 128 118 130 139 143 145 156 160 159 156 157 155 153
192 140 152 184 210 270 319 249 262 249 186 177 177 174 169 170 179 178 180 177 174 172 170 168 170 172 172 166 163 156 147 148 150 154 153 157 162 170 158 134 142 148 153 152 145 140 157 147 151
164 176 165 138 139 118 277 280 313 25 143 161 164 164 170 175 178 180 180 178 175 172 174 174 174 174 176 175 165 157 157 152 151 151 144 152 160 162 148 135 137 130 131 128 129 132 153 138 139
143 153 89 109 138 181 282 273 234 216 188 171 167 173 180 178 178 183 183 181 180 178 174 173 175 177 176 175 170 166 169 163 151 141 145 149 155 148 140 134 129 124 118 110 111 117 119 114 110
48 78 99 120 148 149 202 267 232 193 184 173 175 177 175 177 178 182 188 184 177 173 173 174 173 171 173 175 173 168 166 161 153 147 160 158 151 143 142 148 145 135 126 118 118 130 126 116 104
163 161 135 143 215 160 162 257 266 178 168 170 174 170 164 165 173 179 180 175 170 172 176 176 175 176 178 177 172 170 167 162 164 168 168 159 154 148 144 141 140 143 137 132 132 141 130 127 124
Height
1499 1499 1499 1500 1502 1509 1509 1501 1494 1493 1494 1494 1493 1494 1497 1501 1505 1513 1510 1508 1509 1509 1510 1511 1511 1511 1511 1511 1512 1512 1512 1512 1513 1513 1513 1514 1514 1514 1515 1515 1516 1517 1518 1519 1519 1520 1521 1522 1523
1499 1499 1501 1501 1508 1518 1512 1498 1496 1494 1495 1495 1496 1497 1499 1502 1504 1506 1507 1509 1510 1510 1510 1511 1512 1512 1512 1513 1513 1513 1514 1514 1514 1515 1515 1516 1516 1516 1517 1518 1519 1519 1520 1521 1521 1522 1523 1524 1525
1499 1500 1502 1503 1510 1514 1509 1497 1495 1494 1495 1494 1497 1499 1501 1504 1506 1507 1508 1510 1511 1511 1512 1513 1513 1513 1513 1514 1514 1515 1515 1515 1516 1517 1517 1518 1518 1519 1519 1520 1521 1522 1522 1523 1524 1525 1525 1526 1527
1500 1502 1503 1507 1510 1502 1497 1495 1494 1495 1497 1497 1498 1502 1504 1507 1507 1508 1509 1511 1512 1512 1513 1514 1514 1514 1515 1515 1516 1516 1516 1517 1518 1519 1520 1520 1521 1521 1522 1523 1523 1524 1525 1526 1526 1527 1528 1529 1530
1501 1502 1507 1512 1507 1498 1493 1493 1494 1495 1498 1500 1500 1504 1507 1509 1509 1509 1511 1512 1513 1514 1514 1515 1516 1516 1517 1517 1517 1518 1518 1519 1520 1521 1522 1522 1523 1524 1524 1525 1525 1526 1527 1528 1528 1529 1530 1531 1532
1502 1504 1514 1516 1506 1498 1495 1494 1495 1497 1500 1502 1503 1505 1509 1511 1510 1512 1513 1514 1515 1515 1515 1516 1517 1518 1518 1519 1519 1519 1520 1520 1522 1522 1523 1524 1525 1526 1526 1527 1527 1528 1529 1530 1530 1531 1532 1533 1535
1504 1507 1513 1510 1506 1501 1497 1496 1496 1498 1500 1503 1504 1507 1510 1512 1512 1513 1514 1515 1516 1516 1516 1517 1519 1519 1520 1520 1521 1521 1521 1522 1523 1524 1525 1526 1527 1528 1528 1529 1529 1530 1531 1532 1533 1533 1535 1536 1537
1502 1506 1510 1508 1506 1503 1497 1497 1498 1498 1502 1505 1505 1507 1510 1513 1514 1515 1516 1516 1517 1517 1518 1518 1519 1520 1521 1522 1522 1523 1523 1524 1525 1526 1527 1528 1529 1529 1530 1531 1531 1532 1533 1534 1534 1535 1536 1537 1538
1501 1510 1514 1507 1504 1501 1497 1498 1501 1501 1502 1505 1506 1507 1510 1513 1514 1515 1516 1517 1518 1518 1519 1520 1520 1521 1522 1522 1523 1524 1524 1525 1526 1527 1528 1529 1530 1530 1531 1532 1533 1533 1534 1535 1536 1537 1538 1539 1539
1501 1510 1506 1497 1495 1496 1497 1498 1501 1504 1505 1507 1508 1510 1512 1513 1515 1515 1516 1517 1518 1518 1520 1520 1521 1521 1522 1523 1524 1524 1525 1526 1527 1527 1528 1529 1530 1531 1532 1533 1533 1534 1535 1536 1537 1538 1539 1540 1540
1497 1501 1495 1493 1493 1494 1497 1499 1501 1503 1507 1507 1508 1511 1513 1514 1515 1516 1517 1518 1518 1519 1520 1520 1521 1522 1523 1523 1524 1525 1526 1526 1527 1528 1529 1530 1531 1531 1532 1533 1534 1535 1536 1537 1538 1539 1539 1540 1541
1494 1495 1493 1493 1493 1495 1497 1500 1503 1504 1507 1508 1509 1511 1513 1515 1516 1517 1518 1518 1519 1520 1520 1521 1521 1522 1523 1524 1525 1525 1526 1527 1527 1528 1529 1530 1530 1531 1532 1533 1534 1535 1536 1537 1538 1539 1540 1541 1541
1494 1495 1494 1494 1494 1496 1498 1501 1503 1507 1508 1510 1512 1513 1514 1515 1517 1518 1519 1519 1520 1520 1521 1521 1522 1522 1523 1524 1524 1525 1526 1527 1527 1528 1529 1530 1531 1531 1532 1533 1534 1535 1537 1538 1539 1539 1540 1541 1541
1494 1494 1495 1496 1497 1499 1500 1503 1505 1509 1510 1511 1513 1515 1516 1516 1517 1519 1519 1520 1521 1521 1522 1522 1522 1523 1524 1524 1525 1525 1526 1527 1528 1529 1530 1530 1531 1532 1533 1533 1534 1535 1537 1538 1539 1540 1540 1541 1542
1494 1497 1499 1499 1499 1502 1502 1509 1507 1508 1510 1512 1514 1516 1517 1518 1518 1519 1520 1520 1521 1522 1522 1523 1523 1523 1524 1524 1525 1525 1526 1527 1528 1529 1530 1531 1531 1532 1533 1533 1534 1535 1537 1538 1539 1540 1541 1541 1542
1497 1504 1512 1503 1499 1502 1507 1519 1510 1509 1510 1513 1515 1517 1518 1519 1519 1520 1521 1521 1522 1522 1523 1523 1524 1524 1524 1525 1525 1526 1527 1528 1529 1530 1531 1531 1532 1533 1533 1534 1534 1536 1537 1538 1539 1540 1540 1541 1541
1508 1517 1516 1508 1499 1501 1507 1515 1510 1510 1510 1512 1514 1516 1518 1519 1520 1521 1521 1522 1522 1523 1524 1524 1524 1525 1525 1526 1526 1526 1527 1528 1529 1530 1531 1532 1532 1533 1533 1534 1535 1536 1537 1538 1539 1539 1540 1541 1542
1516 1516 1514 1512 1503 1502 1508 1511 1509 1510 1510 1512 1514 1515 1517 1518 1520 1521 1522 1522 1523 1524 1524 1525 1526 1526 1526 1526 1527 1527 1528 1529 1530 1530 1531 1532 1533 1533 1534 1535 1536 1537 1537 1538 1539 1539 1540 1541 1541
1502 1508 1512 1507 1500 1504 1508 1509 1508 1508 1509 1511 1513 1514 1516 1518 1519 1521 1522 1523 1524 1524 1525 1525 1526 1526 1527 1527 1527 1528 1529 1530 1530 1531 1531 1532 1533 1533 1534 1535 1536 1537 1537 1538 1539 1539 1540 1541 1541
1500 1508 1510 1504 1498 1504 1509 1511 1507 1507 1507 1508 1510 1513 1515 1517 1519 1520 1522 1523 1523 1524 1525 1526 1526 1527 1527 1528 1528 1529 1529 1530 1530 1531 1532 1533 1533 1534 1534 1535 1536 1537 1537 1538 1539 1539 1540 1541 1541
1500 1504 1506 1507 1504 1504 1511 1518 1513 1509 1508 1510 1511 1512 1514 1515 1517 1519 1520 1522 1523 1524 1525 1526 1527 1527 1528 1528 1529 1530 1530 1531 1531 1532 1532 1533 1533 1534 1534 1535 1536 1536 1537 1538 1539 1539 1540 1540 1541
1502 1491 1494 1501 1512 1521 1516 1534 1518 1511 1509 1508 1509 1511 1512 1515 1516 1517 1519 1521 1522 1524 1525 1526 1527 1528 1528 1529 1529 1530 1530 1530 1531 1532 1532 1533 1533 1534 1534 1535 1536 1536 1537 1538 1538 1539 1539 1540 1540
1491 1486 1492 1499 1509 1520 1519 1530 1523 1512 1512 1507 1506 1508 1510 1512 1514 1515 1517 1519 1521 1523 1524 1526 1527 1528 1528 1529 1529 1530 1530 1531 1531 1532 1532 1533 1533 1534 1534 1535 1535 1536 1537 1537 1538 1539 1539 1539 1540
1483 1492 1499 1507 1517 1532 1522 1528 1526 1512 1505 1503 1503 1505 1507 1510 1512 1514 1516 1518 1520 1522 1524 1525 1527 1528 1528 1529 1529 1530 1530 1531 1531 1532 1532 1533 1533 1534 1534 1535 1535 1536 1536 1537 1538 1538 1539 1539 1539
1486 1509 1530 1534 1543 1538 1518 1522 1518 1496 1492 1494 1497 1500 1503 1507 1510 1512 1514 1516 1518 1520 1522 1524 1526 1527 1528 1528 1529 1529 1530 1531 1531 1532 1532 1533 1533 1534 1534 1534 1535 1535 1536 1537 1537 1537 1538 1538 1538
1488 1502 1529 1541 1545 1537 1521 1523 1506 1487 1486 1489 1492 1496 1500 1504 1507 1509 1512 1514 1516 1518 1521 1523 1525 1526 1527 1528 1529 1529 1530 1531 1531 1532 1533 1533 1534 1534 1534 1534 1535 1535 1536 1536 1537 1537 1537 1538 1538
1488 1497 1499 1521 1529 1538 1529 1514 1498 1486 1487 1490 1493 1495 1498 1501 1504 1507 1510 1512 1514 1516 1519 1521 1523 1525 1527 1528 1529 1529 1530 1531 1531 1532 1532 1533 1534 1534 1534 1534 1534 1535 1535 1536 1536 1536 1537 1537 1537
1479 1487 1505 1520 1536 1542 1531 1520 1514 1498 1493 1491 1493 1494 1496 1498 1501 1504 1507 1509 1512 1515 1517 1520 1522 1524 1525 1527 1528 1529 1530 1531 1531 1531 1532 1532 1533 1533 1534 1534 1534 1535 1535 1535 1535 1536 1536 1536 1536
1485 1491 1502 1516 1521 1537 1541 1528 1494 1492 1489 1489 1491 1492 1494 1496 1498 1502 1505 1507 1510 1514 1516 1518 1520 1522 1524 1525 1527 1528 1529 1530 1531 1531 1531 1532 1532 1533 1533 1533 1534 1534 1534 1535 1535 1535 1535 1535 1536
1479 1487 1500 1516 1520 1524 1531 1522 1484 1485 1485 1486 1488 1490 1492 1494 1497 1500 1503 1506 1509 1512 1514 1516 1518 1520 1522 1524 1525 1527 1528 1529 1530 1530 1531 1531 1532 1532 1532 1533 1533 1534 1534 1534 1534 1535 1535 1534 1534